Other Surface Observations
Issued by NWS Tucson, AZ

Home | Current Version | Previous Version | Text Only | Print | Product List | Glossary On
Versions: 1 2 3 4 5 6 7 8 9 10 11 12 13 14 15 16 17 18 19 20 21 22 23 24 25 26 27 28 29 30 31 32 33 34 35 36 37 38 39 40 41 42 43 44 45 46 47 48 49 50
000
SXUS55 KTWC 220315
OSOTWC

WEATHER ROUNDUP FOR SOUTHEAST ARIZONA
NATIONAL WEATHER SERVICE TUCSON AZ
815 PM MST SAT JUL 21 2018

AZZ504>506-514-220415-
LOCATION       SKY/WX    TMP DP  RH WIND       PRES   REMARKS
TUCSON         MOCLDY    92  61  35 N12       30.03R
DAVIS-MONTHAN  CLEAR     92  61  35 NW14      30.02R
CHILDRENS PARK N/A      N/A N/A  31 NW9               PIMA CO DEQ
ALVERNON/22ND  N/A       94 N/A N/A NW8               PIMA CO DEQ
CHERRY/GLENN   N/A      N/A N/A N/A N/A               PIMA CO DEQ
TANGERINE      N/A       94 N/A N/A NW7               PIMA CO DEQ
CONTL RANCH    N/A       95  60  31 NW8               PIMA CO DEQ
GRANT/1ST      N/A       95  60  31 NW8               PIMA CO DEQ
CRAYCROFT/22ND N/A       95  60  31 NW10              PIMA CO DEQ
GOLFLINKS/KOLB N/A      N/A N/A N/A N/A               PIMA CO DEQ
AJO/12TH       N/A       96  61  32 NW11              PIMA CO DEQ
FAIRGROUNDS    N/A       93 N/A N/A NW11              PIMA CO DEQ
SAGUARO        N/A       93  58  31 NW7G12            *SABINO CYN
SAN CARLOS     N/A       95  60  31 W13G21            *SAN CARLOS
GREEN VALLEY   N/A       94  59  31 NW6               PIMA CO DEQ
HORSE CAMP CYN N/A       88  59  37 W13G21            *ARAVAIPA CYN
RINCON MTNS    NOT AVBL
$$

AZZ509>511-220415-
LOCATION       SKY/WX    TMP DP  RH WIND       PRES   REMARKS
SAFFORD        MOCLDY    92  59  33 NW18G24   29.98R
STRAY HORSE    N/A       72  52  49 W8G17             *
TRAIL CABIN    N/A       78  56  47 W4G14             *N OF GRANVILLE
BLACK HILLS    NOT AVBL
DRY LAKE       N/A       72  55  55 W5G12             *NATANES MTNS
NOON CREEK     N/A       75  63  66 SW7G15            *PINALENO MTNS
COLUMBINE      N/A       62  54  76 S3                *PINALENO MTNS
GUTHRIE        N/A       80  55  42 W17G24            *SW OF GUTHRIE
$$

AZZ502-503-513-220415-
LOCATION       SKY/WX    TMP DP  RH WIND       PRES   REMARKS
NOGALES        MOCLDY    85  60  42 W5        30.12R
SELLS          N/A       94  56  28 W4G10             *
SASABE         N/A       86  58  38 W6G12             *ALTAR VLY
HOPKINS        N/A       71  57  61 NW10G18           *SANTA RITA MTNS
CARR CYN       N/A       71  64  79 SW5G10            *W OF HEREFORD
$$

AZZ507-508-512-220415-
LOCATION       SKY/WX    TMP DP  RH WIND       PRES   REMARKS
SIERRA VISTA   CLOUDY    83  60  44 W5        30.19R
DOUGLAS        MOCLDY    85  60  42 W8        30.12R
EMPIRE MTNS    NOT AVBL
MULESHOE RANCH N/A       86  58  39 NW10G18           *PRESERVE
HEADQUARTERS   NOT AVBL
$$

.............................NOTES.............................
THIS IS AN AUTOMATED COLLECTIVE WITH MINIMAL QUALITY CONTROL.
PIMA CO DEQ SITES HAVE NONSTANDARD WIND SENSOR HEIGHTS.
PIMA CO DEQ SITES DO NOT REPORT WIND GUSTS.
* INDICATES WIND SENSORS LOCATED AT 20 FEET INSTEAD OF 33 FEET.
..............................KEY..............................
SKY/WX - SKY CONDITION/WEATHER
TMP    - TEMPERATURE IN FAHRENHEIT
DP     - DEWPOINT IN FAHRENHEIT
RH     - RELATIVE HUMIDITY IN PERCENT
WIND   - DIRECTION AND SPEED IN MILES PER HOUR (MPH)
VRB    - VARIABLE WIND DIRECTION
PRES   - MEAN SEA LEVEL PRESSURE IN INCHES OF MERCURY
         F - FALLING PRESSURE   R - RISING PRESSURE
         S - STEADY PRESSURE
VSB    - VISIBILITY IN MILES
HX     - HEAT INDEX IN FAHRENHEIT
WCI    - WIND CHILL INDEX IN FAHRENHEIT
N/A    - NOT AVAILABLE
AFB    - AIR FORCE BASE
         DAVIS-MONTHAN IS DAVIS-MONTHAN AIR FORCE BASE
CYN    - CANYON
MTNS   - MOUNTAINS
NCA    - NATIONAL CONSERVATION AREA
NR     - NEAR
VLY    - VALLEY
CONTL  - CONTINENTAL
PIMA CO DEQ - PIMA COUNTY DEPT OF ENVIRONMENTAL QUALITY



USA.gov is the U.S. government's official web portal to all federal, state and local government web resources and services.